GW0385 Weather Reports


time (UTC)temp
F
wind
direction
speed
knots
gust
knots
rain 1hr
in
rain 24hr
in
rain mn
in
humidity
%
barometer
mb
20260507031022 45 314 0.9 1.7 0.00 0.79 0.79 93 1009.2
20260507031005 45 314 0.9 1.7 0.00 0.79 0.79 93 1009.2
20260507030522 45 314 0.0 1.7 0.00 0.79 0.79 93 1009.3
20260507030506 45 314 0.0 1.7 0.00 0.79 0.79 93 1009.2
20260507030036 45 314 0.0 1.7 0.00 0.79 0.79 93 1009.4
20260507030006 45 314 0.9 1.7 0.00 0.79 0.79 93 1009.3
20260507025524 45 314 0.9 1.7 0.00 0.79 0.79 93 1009.3
20260507025023 45 307 0.9 1.7 0.00 0.79 0.79 93 1009.4
20260507025004 45 307 1.7 1.7 0.00 0.79 0.79 93 1009.2
20260507024536 45 295 0.9 1.7 0.00 0.79 0.79 92 1009.4
20260507024504 45 295 1.7 1.7 0.00 0.79 0.79 93 1009.1
20260507024025 45 289 0.9 2.6 0.00 0.79 0.79 92 1009.4
20260507024002 46 289 0.9 1.7 0.00 0.79 0.79 93 1009.3
20260507023522 45 289 0.9 2.6 0.00 0.79 0.79 92 1009.5
20260507023502 46 289 1.7 2.6 0.00 0.79 0.79 92 1009.4
20260507023034 45 289 0.9 2.6 0.00 0.79 0.79 91 1009.5
20260507023002 46 289 1.7 2.6 0.00 0.79 0.79 92 1009.4
20260507022525 45 118 0.0 2.6 0.00 0.79 0.79 91 1009.4
20260507022023 45 118 0.0 2.6 0.00 0.79 0.79 91 1009.3
20260507022002 46 118 0.9 2.6 0.00 0.79 0.79 91 1009.2
20260507021532 45 110 0.9 2.6 0.00 0.79 0.79 91 1009.3
20260507021502 46 106 0.9 1.7 0.00 0.79 0.79 91 1009.2
20260507021023 45 121 0.0 1.7 0.00 0.79 0.79 91 1009.4
20260507021002 46 121 0.0 1.7 0.00 0.79 0.79 92 1009.3
20260507020523 45 121 0.0 1.7 0.00 0.79 0.79 91 1009.5
20260507020039 45 121 0.0 2.6 0.00 0.79 0.79 91 1009.6
20260507020005 46 121 0.0 2.6 0.00 0.79 0.79 92 1009.5
20260507015526 45 121 0.9 2.6 0.00 0.79 0.79 91 1009.5
20260507015505 46 121 1.7 2.6 0.00 0.79 0.79 92 1009.4
20260507015022 45 121 0.9 2.6 0.00 0.79 0.79 92 1009.6
20260507015004 46 128 1.7 2.6 0.00 0.79 0.79 92 1009.6
20260507014537 45 85 0.0 1.7 0.00 0.79 0.79 92 1009.6
20260507014504 45 81 0.0 1.7 0.00 0.79 0.79 92 1009.5
20260507014022 45 0 0.0 0.9 0.00 0.79 0.79 92 1009.6
20260507013522 45 0 0.0 1.7 0.00 0.79 0.79 92 1009.6
20260507013039 45 0 0.0 1.7 0.01 0.79 0.79 92 1009.6
20260507013002 45 71 0.0 1.7 0.01 0.79 0.79 93 1009.4
20260507012526 45 0 0.0 1.7 0.01 0.79 0.79 92 1009.6
20260507012022 45 71 0.9 1.7 0.02 0.79 0.79 92 1009.5
20260507012001 45 71 0.9 1.7 0.02 0.79 0.79 93 1009.4
20260507011540 45 72 0.9 1.7 0.02 0.79 0.79 92 1009.5
20260507011501 45 72 1.7 1.7 0.02 0.79 0.79 93 1009.4
20260507011021 45 0 0.9 3.5 0.02 0.79 0.79 92 1009.5
20260507010609 45 0 0.0 3.5 0.02 0.79 0.79 92 1009.5
20260507010036 45 87 1.7 4.3 0.03 0.79 0.79 93 1009.3
20260507010003 46 91 2.6 4.3 0.03 0.76 0.79 93 1009.2
20260507005523 45 71 1.7 4.3 0.03 0.79 0.79 93 1009.3
20260507005503 45 64 2.6 4.3 0.03 0.76 0.79 93 1009.2
20260507005026 45 70 1.7 4.3 0.03 0.79 0.79 93 1009.4
20260507005002 45 74 1.7 3.5 0.03 0.76 0.79 93 1009.3
20260507004541 45 45 2.6 4.3 0.03 0.79 0.79 93 1009.4
20260507004503 46 45 2.6 4.3 0.03 0.76 0.79 93 1009.3
20260507004023 45 31 3.5 4.3 0.03 0.79 0.79 93 1009.4
20260507004003 45 37 3.5 4.3 0.04 0.76 0.79 93 1009.3
20260507003523 45 52 2.6 4.3 0.04 0.79 0.79 92 1009.4
20260507003505 46 47 3.5 4.3 0.04 0.76 0.78 93 1009.2
20260507003039 45 35 2.6 5.2 0.03 0.78 0.78 93 1009.3
20260507002522 45 26 3.5 7.0 0.03 0.78 0.78 93 1009.2
20260507002504 45 21 3.5 5.2 0.03 0.76 0.78 93 1009.2
20260507002022 45 16 3.5 7.0 0.02 0.77 0.77 92 1009.2
20260507002006 46 17 4.3 7.0 0.02 0.76 0.77 93 1009.1
20260507001547 45 16 4.3 7.8 0.02 0.77 0.77 92 1009.0
20260507001505 45 26 4.3 7.8 0.02 0.76 0.77 93 1008.9
20260507001023 45 21 5.2 7.8 0.02 0.77 0.77 92 1009.0
20260507001005 46 4 5.2 7.8 0.02 0.76 0.77 93 1008.9
20260507000526 45 17 6.1 7.8 0.01 0.76 0.76 92 1008.9
20260507000505 45 10 7.0 7.8 0.01 0.76 0.76 93 1008.8
20260507000039 45 21 6.1 7.8 0.01 0.76 0.76 92 1008.8
20260507000005 45 21 6.1 7.8 0.02 0.74 0.76 93 1008.8
20260506235522 45 18 7.0 8.7 0.02 0.76 0.76 92 1008.8
20260506235504 45 31 7.0 8.7 0.02 0.74 0.76 93 1008.8
20260506235018 45 17 7.0 8.7 0.02 0.76 0.76 92 1008.7
20260506235004 45 21 7.8 8.7 0.02 0.74 0.76 93 1008.6
20260506234543 45 31 6.1 8.7 0.02 0.76 0.76 92 1008.7
20260506234504 45 31 7.0 7.8 0.02 0.74 0.76 93 1008.5
20260506234023 45 31 7.0 8.7 0.01 0.75 0.75 92 1008.6
20260506233523 45 26 7.0 8.7 0.01 0.75 0.75 92 1008.6
20260506233039 45 26 4.3 7.8 0.01 0.75 0.75 93 1008.3
20260506233006 45 31 4.3 7.8 0.01 0.74 0.75 93 1008.2
20260506232522 45 10 1.7 6.1 0.01 0.75 0.75 93 1008.3
20260506232022 45 21 1.7 6.1 0.01 0.75 0.75 92 1008.3
20260506232005 45 350 1.7 5.2 0.01 0.74 0.75 93 1008.2
20260506231539 45 333 2.6 6.1 0.01 0.75 0.75 93 1008.2
20260506231505 45 353 3.5 5.2 0.02 0.74 0.75 93 1008.1
20260506231022 45 21 2.6 7.8 0.02 0.75 0.75 92 1008.1
20260506231003 45 45 2.6 5.2 0.02 0.74 0.75 93 1007.9
20260506230521 45 4 1.7 7.8 0.02 0.75 0.75 92 1008.1
20260506230503 45 332 2.6 7.8 0.02 0.74 0.75 93 1007.9
20260506230037 45 351 4.3 7.8 0.02 0.75 0.75 92 1007.9
20260506230003 46 12 4.3 7.8 0.01 0.73 0.74 93 1007.8
20260506225522 45 356 4.3 8.7 0.01 0.74 0.74 92 1008.0
20260506225503 46 31 4.3 8.7 0.01 0.73 0.74 93 1007.9
20260506225019 45 356 3.5 9.6 0.01 0.74 0.74 92 1008.0
20260506225003 45 351 4.3 9.6 0.01 0.73 0.74 93 1008.0
20260506224537 45 10 7.0 10.4 0.01 0.74 0.74 92 1008.1
20260506224503 46 14 7.0 10.4 0.01 0.73 0.74 93 1007.9
20260506224022 45 26 8.7 10.4 0.01 0.74 0.74 92 1008.0
20260506223518 45 21 8.7 11.3 0.01 0.74 0.74 93 1008.0
20260506223504 46 18 8.7 11.3 0.01 0.73 0.74 93 1007.9
20260506223036 45 31 9.6 11.3 0.01 0.74 0.74 93 1007.9
20260506223004 46 18 9.6 11.3 0.01 0.73 0.74 93 1007.8
20260506222522 45 21 8.7 12.2 0.01 0.74 0.74 93 1007.9
20260506222505 46 14 10.4 11.3 0.01 0.73 0.74 93 1007.8
20260506222023 45 9 8.7 12.2 0.01 0.74 0.74 93 1007.9
20260506222004 46 15 9.6 11.3 0.01 0.73 0.74 94 1007.9
20260506221539 45 26 9.6 13.0 0.01 0.74 0.74 93 1007.9
20260506221505 45 21 9.6 12.2 0.00 0.73 0.73 94 1007.8
20260506221022 45 17 10.4 13.0 0.00 0.73 0.73 93 1007.9
20260506221006 45 7 11.3 13.0 0.00 0.73 0.73 94 1007.8
20260506220522 45 26 11.3 13.0 0.00 0.73 0.73 93 1007.9
20260506220044 45 21 9.6 12.2 0.00 0.73 0.73 93 1007.9
20260506215522 45 35 9.6 11.3 0.00 0.73 0.73 94 1008.0
20260506215505 45 37 9.6 11.3 0.00 0.73 0.73 94 1007.7
20260506215022 45 21 7.0 11.3 0.00 0.73 0.73 94 1008.1
20260506215006 45 21 7.8 10.4 0.00 0.73 0.73 94 1008.1
20260506214538 45 21 8.7 11.3 0.00 0.73 0.73 93 1008.2
20260506214504 45 13 9.6 10.4 0.00 0.73 0.73 94 1008.1
20260506214022 45 21 8.7 12.2 0.00 0.73 0.73 93 1008.2
20260506214005 45 21 9.6 11.3 0.00 0.73 0.73 94 1008.0
20260506213521 45 17 8.7 12.2 0.00 0.73 0.73 93 1008.0
20260506213036 45 31 9.6 12.2 0.01 0.73 0.73 93 1007.8
20260506213005 45 26 9.6 12.2 0.01 0.73 0.73 94 1007.7
20260506212525 45 18 9.6 13.0 0.01 0.73 0.73 93 1007.8
20260506212504 45 21 10.4 13.0 0.01 0.73 0.73 94 1007.7
20260506212023 44 26 10.4 13.0 0.01 0.73 0.73 93 1007.7
20260506212005 45 31 11.3 13.0 0.01 0.73 0.73 94 1007.6
20260506211538 45 15 10.4 13.0 0.02 0.73 0.73 93 1007.6
20260506211505 45 21 11.3 12.2 0.02 0.73 0.73 94 1007.5
20260506211023 44 21 9.6 13.0 0.02 0.73 0.73 93 1007.7
20260506211005 45 21 10.4 13.0 0.02 0.73 0.73 94 1007.6
20260506210525 45 16 11.3 13.9 0.02 0.73 0.73 93 1007.6
20260506210504 45 21 11.3 13.9 0.02 0.73 0.73 94 1007.5
20260506210036 44 21 11.3 13.9 0.02 0.73 0.73 93 1007.5
20260506210005 45 21 12.2 13.9 0.02 0.71 0.73 94 1007.4
20260506205522 44 26 11.3 13.9 0.02 0.88 0.73 93 1007.4
20260506205506 45 26 12.2 13.9 0.02 0.71 0.73 94 1007.3
20260506205022 44 21 12.2 13.9 0.02 0.88 0.73 93 1007.4
20260506204538 44 26 12.2 13.9 0.02 0.88 0.73 93 1007.5
20260506204506 45 26 12.2 13.9 0.02 0.71 0.73 94 1007.4
20260506204025 44 26 11.3 13.0 0.03 0.88 0.73 93 1007.5
20260506203522 45 21 11.3 13.0 0.03 0.88 0.73 93 1007.5
20260506203505 45 21 11.3 13.0 0.03 0.71 0.73 93 1007.4
20260506203108 45 26 10.4 13.0 0.02 0.87 0.72 93 1007.4
20260506202523 45 18 9.6 13.0 0.02 0.87 0.72 93 1007.4
20260506202503 45 14 9.6 13.0 0.02 0.73 0.72 94 1007.4
20260506202022 45 21 10.4 12.2 0.02 0.87 0.72 93 1007.4
20260506202002 45 18 10.4 12.2 0.02 0.73 0.72 93 1007.4
20260506201536 45 21 8.7 11.3 0.01 0.86 0.71 93 1007.5
20260506201502 45 21 9.6 11.3 0.01 0.79 0.71 93 1007.4
20260506201022 45 16 9.6 11.3 0.01 0.86 0.71 93 1007.6
20260506201002 45 21 10.4 11.3 0.01 0.86 0.71 93 1007.5
20260506200522 45 11 8.7 11.3 0.01 0.86 0.71 93 1007.5
20260506200045 44 26 7.8 12.2 0.02 0.86 0.71 93 1007.4
20260506200003 45 16 8.7 11.3 0.02 0.84 0.71 93 1007.5
20260506195522 44 14 9.6 12.2 0.03 0.86 0.71 92 1007.5
20260506195502 45 13 9.6 12.2 0.03 0.84 0.71 93 1007.4
20260506195022 44 21 8.7 12.2 0.03 0.86 0.71 92 1007.6
20260506194535 44 357 7.8 10.4 0.04 0.86 0.71 92 1007.6
20260506194505 45 9 8.7 10.4 0.04 0.84 0.70 93 1007.5
20260506194021 44 15 8.7 10.4 0.03 0.85 0.70 92 1007.6
20260506194005 45 21 9.6 10.4 0.04 0.84 0.70 93 1007.6
20260506193521 44 21 7.8 11.3 0.04 0.85 0.70 92 1007.6
20260506193505 45 14 7.8 10.4 0.04 0.84 0.70 93 1007.5
20260506193039 44 16 9.6 12.2 0.04 0.85 0.70 92 1007.7
20260506193005 45 16 9.6 12.2 0.04 0.84 0.70 93 1007.6
20260506192521 44 26 9.6 12.2 0.04 0.85 0.70 92 1007.6
20260506192505 45 26 10.4 12.2 0.04 0.84 0.70 93 1007.5
20260506192018 44 26 9.6 12.2 0.05 0.85 0.70 92 1007.5
20260506191538 44 16 10.4 11.3 0.05 0.85 0.70 92 1007.6
20260506191504 44 18 10.4 11.3 0.05 0.84 0.70 93 1007.5
20260506191022 44 21 10.4 11.3 0.06 0.85 0.70 92 1007.6
20260506191004 45 31 10.4 11.3 0.06 0.84 0.70 93 1007.6
20260506190521 44 21 9.6 11.3 0.06 0.85 0.70 92 1007.6
20260506190505 45 21 10.4 11.3 0.06 0.84 0.70 93 1007.5
20260506190046 44 31 9.6 11.3 0.05 0.84 0.69 92 1007.6
20260506190005 45 26 10.4 11.3 0.05 0.79 0.69 93 1007.6
20260506185522 44 21 9.6 11.3 0.04 0.83 0.68 92 1007.7
20260506185023 44 21 9.6 11.3 0.05 0.83 0.68 92 1007.7
20260506185006 45 21 9.6 11.3 0.05 0.79 0.68 93 1007.6
20260506184543 44 18 8.7 12.2 0.04 0.82 0.67 92 1007.7
20260506184023 44 26 9.6 12.2 0.04 0.82 0.67 92 1007.8
20260506183519 44 11 9.6 12.2 0.04 0.81 0.66 92 1007.7
20260506183032 44 21 9.6 12.2 0.04 0.81 0.66 92 1007.7
20260506183006 45 16 9.6 12.2 0.05 0.79 0.66 93 1007.6
20260506182521 44 353 6.1 12.2 0.05 0.81 0.66 92 1007.9
20260506182505 44 13 6.1 12.2 0.05 0.79 0.66 93 1007.8
20260506182026 44 2 8.7 12.2 0.05 0.80 0.65 92 1007.9
20260506182005 44 2 8.7 12.2 0.05 0.79 0.65 92 1007.8
20260506181539 44 12 8.7 13.0 0.06 0.80 0.65 92 1007.8
20260506181504 45 16 9.6 12.2 0.06 0.79 0.65 93 1007.7
20260506181023 44 21 9.6 13.0 0.06 0.79 0.64 92 1007.8
20260506181004 44 10 10.4 13.0 0.06 0.79 0.64 93 1007.7
20260506180523 44 353 8.7 13.0 0.08 0.79 0.64 92 1008.1
20260506180040 44 9 7.8 11.3 0.09 0.79 0.64 92 1008.1
20260506180006 44 16 8.7 11.3 0.09 0.70 0.64 93 1008.0
20260506175524 44 10 7.8 12.2 0.10 0.79 0.64 92 1008.0
20260506175505 44 9 7.8 12.2 0.11 0.70 0.64 93 1007.9
20260506175022 44 341 7.8 12.2 0.10 0.78 0.63 92 1008.1
20260506175004 44 26 8.7 12.2 0.11 0.70 0.63 93 1008.0
20260506174538 44 322 7.8 12.2 0.12 0.78 0.63 92 1008.2
20260506174505 44 353 9.6 12.2 0.12 0.70 0.63 93 1008.1
20260506174022 44 1 7.8 12.2 0.11 0.77 0.62 92 1008.2
20260506174003 44 341 8.7 12.2 0.11 0.70 0.62 93 1008.0
20260506173523 44 21 8.7 12.2 0.12 0.77 0.62 92 1008.3
20260506173047 44 4 7.8 12.2 0.11 0.76 0.61 92 1008.5
20260506173003 44 2 8.7 12.2 0.11 0.70 0.61 93 1008.3
20260506172521 44 347 8.7 12.2 0.12 0.76 0.61 92 1008.5
20260506172022 44 13 7.8 12.2 0.11 0.75 0.60 92 1008.5
20260506172002 44 14 8.7 12.2 0.11 0.70 0.60 93 1008.2
20260506171538 44 4 9.6 13.0 0.11 0.74 0.58 92 1008.4
20260506171501 44 6 9.6 12.2 0.11 0.70 0.59 93 1008.4
20260506171023 44 21 9.6 13.0 0.10 0.73 0.58 92 1008.4
20260506171002 44 10 9.6 13.0 0.11 0.70 0.57 93 1008.3
20260506170526 44 14 8.7 13.0 0.09 0.71 0.56 92 1008.5
20260506170502 44 21 9.6 13.0 0.09 0.70 0.56 93 1008.4
20260506170041 44 18 8.7 11.3 0.08 0.70 0.55 92 1008.5
20260506170002 44 349 9.6 11.3 0.09 0.61 0.54 92 1008.4
20260506165522 44 347 7.0 13.9 0.07 0.68 0.52 92 1008.4
20260506165022 44 359 7.8 13.9 0.07 0.67 0.52 92 1008.5
20260506165005 44 0 9.6 13.0 0.07 0.61 0.52 92 1008.3
20260506164536 44 13 10.4 13.9 0.06 0.66 0.51 92 1008.4
20260506164505 44 21 10.4 13.0 0.07 0.61 0.51 92 1008.3
20260506164022 44 355 10.4 13.0 0.07 0.66 0.51 92 1008.7
20260506163522 44 13 10.4 13.0 0.07 0.65 0.50 92 1008.5
20260506163501 44 16 11.3 13.0 0.08 0.61 0.50 92 1008.3
20260506163054 44 2 7.8 13.9 0.09 0.65 0.50 92 1008.6
20260506162523 44 2 9.6 13.9 0.08 0.64 0.49 92 1008.7
20260506162502 44 6 10.4 13.9 0.09 0.61 0.49 92 1008.5
20260506162023 44 6 7.8 13.9 0.10 0.64 0.49 92 1008.7
20260506162002 44 12 7.8 13.9 0.10 0.61 0.48 92 1008.6
20260506161539 44 21 12.2 13.9 0.10 0.63 0.48 92 1008.7
20260506161503 45 21 12.2 13.9 0.10 0.61 0.48 92 1008.6
20260506161022 44 5 9.6 13.9 0.10 0.62 0.47 92 1008.7
20260506161003 45 16 10.4 13.9 0.10 0.61 0.47 92 1008.5
20260506160522 44 8 11.3 13.9 0.11 0.62 0.47 92 1008.6
20260506160502 45 21 13.0 13.9 0.11 0.61 0.47 92 1008.5
20260506160037 45 16 10.4 13.0 0.12 0.62 0.47 92 1008.8
20260506155519 45 18 9.6 11.3 0.12 0.61 0.46 92 1008.8
20260506155506 45 21 10.4 11.3 0.12 0.50 0.46 92 1008.7
20260506155022 45 18 8.7 10.4 0.12 0.60 0.45 92 1008.8
20260506155004 45 26 8.7 10.4 0.12 0.50 0.45 92 1008.7
20260506154543 45 16 8.7 10.4 0.12 0.58 0.44 91 1008.9
20260506154019 45 12 6.1 9.6 0.13 0.58 0.44 91 1008.9
20260506154004 45 21 6.1 9.6 0.12 0.50 0.43 92 1008.8
20260506153519 45 8 7.0 9.6 0.12 0.57 0.42 91 1008.9
20260506153504 45 11 7.0 9.6 0.12 0.50 0.42 92 1008.8
20260506153034 45 352 6.1 8.7 0.12 0.56 0.41 91 1009.1
20260506153005 45 3 7.0 8.7 0.12 0.50 0.41 91 1008.9
20260506152518 45 15 6.1 8.7 0.11 0.55 0.40 91 1009.1
20260506152506 45 14 7.0 8.7 0.11 0.50 0.40 91 1009.0
20260506152019 45 21 7.0 8.7 0.11 0.54 0.39 90 1009.0
20260506152006 45 21 7.0 8.7 0.11 0.50 0.39 91 1008.9
20260506151540 45 21 6.1 7.8 0.10 0.52 0.38 90 1009.0
20260506151506 45 18 6.1 7.8 0.10 0.50 0.38 90 1008.9
20260506151018 45 6 5.2 7.8 0.10 0.52 0.37 90 1009.0
20260506151005 45 0 5.2 7.8 0.10 0.50 0.36 90 1008.9
20260506150522 45 14 3.5 7.8 0.10 0.51 0.36 90 1008.9
20260506150503 45 4 3.5 7.8 0.10 0.50 0.35 90 1008.9
20260506150038 45 7 5.2 7.8 0.09 0.50 0.35 90 1009.0
20260506145522 45 21 4.3 8.7 0.09 0.49 0.34 89 1008.7
20260506145503 45 16 4.3 7.8 0.09 0.41 0.33 90 1008.7
20260506145023 45 6 6.1 8.7 0.08 0.48 0.33 89 1008.9
20260506145001 45 18 6.1 7.8 0.08 0.41 0.33 90 1008.8
20260506144538 45 12 6.1 8.7 0.08 0.47 0.32 89 1008.9
20260506144503 46 14 7.0 7.8 0.08 0.41 0.32 90 1008.8
20260506144022 45 21 4.3 7.0 0.07 0.46 0.31 89 1008.8
20260506144003 45 11 4.3 7.0 0.07 0.41 0.31 89 1008.5
20260506143522 45 31 2.6 4.3 0.07 0.45 0.30 89 1008.8
20260506143502 46 31 2.6 4.3 0.07 0.41 0.30 89 1008.6
20260506143036 45 26 2.6 4.3 0.06 0.44 0.29 89 1008.7
20260506143006 46 31 2.6 4.3 0.07 0.41 0.29 89 1008.5
20260506142524 45 31 1.7 3.5 0.07 0.44 0.29 88 1008.7
20260506142505 46 31 1.7 3.5 0.07 0.41 0.29 89 1008.6
20260506142021 45 0 0.9 3.5 0.07 0.43 0.28 88 1008.8
20260506141534 45 31 1.7 3.5 0.07 0.43 0.28 88 1008.7
20260506141506 46 15 2.6 2.6 0.07 0.41 0.27 89 1008.6
20260506141023 45 21 0.9 3.5 0.06 0.42 0.27 88 1008.7
20260506141006 46 21 1.7 3.5 0.06 0.41 0.27 88 1008.5
20260506140519 45 0 0.9 4.3 0.06 0.41 0.26 88 1008.7
20260506140034 45 343 0.9 4.3 0.06 0.41 0.26 88 1008.6
20260506140005 46 13 1.7 4.3 0.06 0.35 0.26 89 1008.5
20260506135524 45 1 1.7 5.2 0.06 0.40 0.25 88 1008.7
20260506135025 45 352 1.7 6.1 0.06 0.40 0.25 88 1008.6
20260506134538 45 356 3.5 7.0 0.06 0.39 0.24 88 1008.6
20260506134502 46 344 3.5 7.0 0.06 0.35 0.24 89 1008.7
20260506134018 45 336 2.6 7.0 0.06 0.39 0.24 89 1008.8
20260506134002 46 303 3.5 7.0 0.06 0.35 0.24 89 1008.7
20260506133519 46 339 3.5 8.7 0.06 0.38 0.23 89 1008.8
20260506133503 46 349 4.3 8.7 0.07 0.35 0.23 89 1008.6
20260506133037 46 335 1.7 8.7 0.06 0.37 0.22 90 1008.8
20260506133003 46 350 1.7 8.7 0.07 0.35 0.22 90 1008.7
20260506132522 46 321 3.5 7.0 0.07 0.37 0.22 90 1008.9
20260506132502 46 341 3.5 7.0 0.08 0.35 0.22 91 1008.8
20260506132018 45 313 4.3 7.0 0.07 0.36 0.21 90 1009.1
20260506132003 46 333 4.3 7.0 0.07 0.35 0.21 91 1009.0
20260506131538 45 354 2.6 8.7 0.08 0.36 0.21 90 1008.9
20260506131503 46 26 3.5 7.8 0.08 0.35 0.21 91 1008.7
20260506131022 45 3 5.2 8.7 0.08 0.36 0.21 90 1008.7
20260506131003 46 14 7.0 7.8 0.09 0.35 0.21 91 1008.6
20260506130521 45 21 4.3 8.7 0.09 0.35 0.20 90 1008.7
20260506130503 46 11 4.3 8.7 0.09 0.35 0.20 91 1008.5
20260506130038 45 15 5.2 10.4 0.09 0.35 0.20 90 1008.9
20260506130006 46 14 6.1 9.6 0.09 0.26 0.20 91 1008.8
20260506125518 46 6 5.2 10.4 0.09 0.34 0.19 90 1008.6
20260506125505 46 351 6.1 10.4 0.09 0.26 0.19 91 1008.5
20260506125018 46 13 7.8 10.4 0.09 0.34 0.19 90 1008.8
20260506124532 46 16 7.0 10.4 0.09 0.33 0.18 90 1009.0
20260506124506 46 14 7.8 10.4 0.09 0.26 0.18 90 1008.8
20260506124022 46 21 7.8 10.4 0.09 0.33 0.18 90 1009.0
20260506123522 46 8 5.2 9.6 0.07 0.31 0.16 90 1009.2
20260506123504 47 11 4.3 9.6 0.07 0.26 0.16 90 1009.1
20260506123032 46 16 4.3 7.8 0.06 0.30 0.15 89 1009.3
20260506122522 46 358 3.5 7.8 0.06 0.30 0.15 89 1009.3
20260506122023 47 333 4.3 12.2 0.05 0.26 0.14 89 1009.2
20260506122018 46 330 3.5 12.2 0.05 0.29 0.14 89 1009.3
20260506121533 46 264 7.0 12.2 0.04 0.28 0.13 89 1009.2
20260506121026 46 56 2.6 11.3 0.04 0.27 0.12 88 1008.6
20260506121004 47 59 1.7 11.3 0.04 0.26 0.12 89 1008.6
20260506120518 46 299 6.1 11.3 0.03 0.26 0.11 88 1009.5
20260506120506 47 269 7.8 11.3 0.03 0.26 0.11 88 1009.4
20260506120040 47 37 3.5 8.7 0.03 0.26 0.11 88 1008.8
20260506120006 47 31 3.5 8.7 0.03 0.23 0.10 88 1008.7
20260506115518 47 276 4.3 8.7 0.02 0.25 0.10 88 1009.6
20260506115505 47 276 5.2 8.7 0.02 0.23 0.10 88 1009.6
20260506115021 47 346 4.3 9.6 0.02 0.23 0.10 88 1008.9
20260506114535 47 316 5.2 9.6 0.02 0.24 0.09 87 1009.3
20260506114505 47 337 5.2 9.6 0.02 0.23 0.09 88 1009.3
20260506114021 47 350 3.5 7.8 0.02 0.24 0.09 87 1009.2
20260506113520 47 359 4.3 8.7 0.02 0.24 0.09 87 1009.2
20260506113504 47 351 4.3 8.7 0.02 0.23 0.09 88 1009.1
20260506113035 47 31 4.3 8.7 0.02 0.24 0.09 87 1009.3
20260506113005 48 349 5.2 8.7 0.02 0.23 0.09 88 1009.2
20260506112521 47 4 4.3 10.4 0.02 0.24 0.09 87 1009.1
20260506112505 48 343 4.3 10.4 0.02 0.23 0.09 88 1009.1
20260506112023 47 331 7.0 10.4 0.03 0.24 0.09 87 1009.4
20260506112005 48 359 7.8 10.4 0.03 0.23 0.09 88 1009.4
20260506111535 47 360 5.2 10.4 0.03 0.24 0.09 88 1009.4
20260506111505 48 21 5.2 10.4 0.03 0.23 0.09 89 1009.3
20260506111019 48 337 7.8 10.4 0.02 0.23 0.08 89 1009.1
20260506110518 48 357 2.6 10.4 0.02 0.23 0.08 89 1009.2
20260506110041 48 6 7.8 12.2 0.02 0.23 0.08 89 1009.2
20260506110005 48 8 8.7 10.4 0.02 0.21 0.08 89 1009.1
20260506105522 47 21 7.0 12.2 0.02 0.23 0.08 88 1009.1
20260506105505 48 26 6.1 11.3 0.02 0.21 0.08 89 1008.9
20260506105019 48 1 8.7 12.2 0.02 0.23 0.08 88 1009.2
20260506105005 48 3 9.6 11.3 0.02 0.21 0.08 88 1009.0
20260506104536 48 4 7.0 14.8 0.01 0.22 0.07 87 1009.2
20260506104504 48 16 7.8 13.0 0.01 0.21 0.07 88 1009.1
20260506104023 48 21 8.7 15.6 0.01 0.22 0.07 87 1009.1
20260506104004 49 354 9.6 15.6 0.01 0.21 0.07 88 1009.0
20260506103519 49 4 11.3 15.6 0.02 0.22 0.07 87 1008.7
20260506103504 49 359 11.3 15.6 0.02 0.21 0.07 88 1008.6
20260506103036 49 11 10.4 14.8 0.02 0.22 0.07 88 1008.7
20260506103005 50 11 11.3 14.8 0.02 0.21 0.07 89 1008.7
20260506102519 50 7 10.4 13.9 0.02 0.22 0.07 89 1008.7
20260506102019 50 359 6.1 10.4 0.01 0.21 0.06 90 1008.7
20260506102005 51 6 6.1 10.4 0.01 0.21 0.06 90 1008.6
20260506101535 50 340 6.1 9.6 0.02 0.21 0.06 90 1008.7
20260506101502 51 349 6.1 9.6 0.02 0.21 0.06 90 1008.6
20260506101024 50 3 5.2 11.3 0.05 0.21 0.06 90 1008.5
20260506100959 51 340 6.1 10.4 0.05 0.21 0.06 90 1008.4
20260506100518 51 323 4.3 11.3 0.05 0.21 0.06 90 1008.6
20260506100500 51 316 5.2 10.4 0.05 0.21 0.06 90 1008.5
20260506100037 51 339 2.6 7.0 0.05 0.21 0.06 90 1008.6
20260506095957 51 359 3.5 7.0 0.05 0.16 0.06 91 1008.4
20260506095519 51 346 2.6 7.0 0.05 0.21 0.06 90 1008.4
20260506095455 51 332 3.5 7.0 0.05 0.16 0.06 91 1008.2
20260506095019 50 4 2.6 8.7 0.05 0.21 0.06 90 1008.5
20260506094954 51 352 2.6 7.8 0.05 0.16 0.06 90 1008.4
20260506094539 50 353 2.6 11.3 0.05 0.21 0.06 89 1008.4
20260506094019 50 349 6.1 11.3 0.05 0.21 0.06 89 1008.6
20260506093521 51 61 6.1 11.3 0.04 0.20 0.05 89 1007.9
20260506093455 51 46 5.2 9.6 0.04 0.16 0.05 89 1007.9
20260506093037 51 321 5.2 10.4 0.04 0.20 0.05 88 1008.9
20260506092953 51 345 6.1 10.4 0.04 0.16 0.05 88 1008.7
20260506092518 51 31 8.7 10.4 0.04 0.20 0.05 87 1008.4
20260506092022 52 31 7.8 10.4 0.04 0.20 0.05 87 1008.6
20260506091947 52 35 7.8 9.6 0.04 0.16 0.05 88 1008.5
20260506091536 52 31 6.1 15.6 0.03 0.19 0.04 87 1009.0
20260506091025 52 297 5.2 15.6 0.00 0.16 0.01 87 1009.8
20260506090948 52 288 6.1 15.6 0.00 0.16 0.01 87 1009.8
20260506090522 52 21 12.2 15.6 0.00 0.16 0.01 85 1008.1
20260506090443 53 21 13.0 15.6 0.00 0.16 0.01 85 1008.0
20260506090036 53 16 8.7 15.6 0.00 0.16 0.01 84 1008.0
20260506085940 53 21 7.8 15.6 0.00 0.16 0.01 85 1008.0
20260506085522 53 329 8.7 14.8 0.00 0.16 0.01 85 1008.8
20260506085023 53 2 9.6 14.8 0.00 0.16 0.01 84 1008.5
20260506084929 53 352 12.2 14.8 0.00 0.16 0.01 84 1008.2
20260506084543 53 12 7.8 13.9 0.00 0.16 0.01 84 1008.1
20260506084431 54 8 7.8 13.9 0.00 0.16 0.01 85 1008.3
20260506084023 53 312 7.8 14.8 0.00 0.16 0.01 84 1008.9
20260506083930 54 347 8.7 14.8 0.00 0.16 0.01 84 1008.7
20260506083525 54 354 9.6 14.8 0.00 0.16 0.01 84 1008.5
20260506083429 54 2 9.6 14.8 0.00 0.16 0.01 84 1008.5
20260506083034 54 352 8.7 13.9 0.00 0.16 0.01 84 1008.6
20260506082930 54 352 9.6 13.9 0.00 0.16 0.01 84 1008.5
20260506082525 54 1 10.4 13.9 0.00 0.16 0.01 83 1008.2
20260506082429 54 21 10.4 13.9 0.00 0.16 0.01 84 1008.1
20260506082022 54 1 7.8 12.2 0.00 0.16 0.01 83 1008.8
20260506081541 54 6 8.7 12.2 0.00 0.16 0.01 83 1008.3
20260506081433 55 21 8.7 12.2 0.00 0.16 0.01 84 1008.1
20260506081022 54 10 8.7 12.2 0.00 0.16 0.01 84 1008.4
20260506080932 55 14 9.6 12.2 0.00 0.16 0.01 85 1008.4
20260506080522 54 349 7.8 13.9 0.00 0.16 0.01 84 1008.3
20260506080433 55 354 9.6 13.0 0.00 0.16 0.01 85 1008.2
20260506073526 54 293 3.5 6.1 0.00 0.16 0.01 91 1008.6
20260506073432 54 316 2.6 6.1 0.00 0.16 0.01 91 1008.2
20260506073035 54 47 1.7 3.5 0.00 0.16 0.01 91 1008.1
20260506072929 55 63 2.6 3.5 0.00 0.16 0.01 91 1008.1
20260506072523 54 0 0.0 5.2 0.00 0.16 0.01 92 1008.4
20260506072430 55 31 0.9 3.5 0.00 0.16 0.01 92 1008.4
20260506072023 54 273 1.7 5.2 0.00 0.16 0.01 92 1008.7
20260506071930 54 273 2.6 3.5 0.00 0.16 0.01 93 1008.9
20260506071535 53 278 0.9 3.5 0.00 0.16 0.01 92 1008.3
20260506071429 54 320 0.9 3.5 0.00 0.16 0.01 92 1007.9
20260506071022 53 0 0.0 4.3 0.00 0.16 0.01 92 1008.0
20260506070930 53 338 0.0 4.3 0.00 0.16 0.01 92 1007.9
20260506070525 53 355 1.7 4.3 0.00 0.16 0.01 92 1008.1
20260506070429 53 8 1.7 4.3 0.00 0.16 0.01 92 1008.0
20260506062429 56 17 1.7 3.5 0.00 0.16 0.01 86 1008.0
20260506062023 55 358 0.9 5.2 0.00 0.16 0.01 87 1008.1
20260506061930 56 10 0.9 6.1 0.00 0.16 0.01 87 1008.1
20260506061536 55 21 2.6 7.0 0.00 0.16 0.01 88 1008.1
20260506061430 55 353 2.6 6.1 0.00 0.16 0.01 88 1007.9
20260506061024 54 338 3.5 8.7 0.00 0.16 0.01 89 1008.1
20260506060929 55 350 3.5 8.7 0.00 0.16 0.01 89 1008.0
20260506060522 54 324 4.3 8.7 0.00 0.16 0.01 89 1007.9
20260506060429 54 337 5.2 8.7 0.00 0.16 0.01 90 1007.8
20260506051025 56 0 0.0 1.7 0.01 0.16 0.01 87 1008.4
20260506050927 56 221 0.0 1.7 0.01 0.16 0.01 87 1008.3
20260506050522 56 0 0.0 1.7 0.01 0.16 0.01 86 1008.5
20260506045022 57 221 0.0 7.8 0.01 0.16 0.01 82 1008.3
20260506044910 58 221 0.9 7.0 0.01 0.15 0.01 82 1008.1
20260506044544 58 221 2.6 7.8 0.01 0.16 0.01 81 1008.2
20260506044022 58 230 3.5 9.6 0.01 0.16 0.01 80 1008.5
20260506043911 58 233 3.5 7.8 0.01 0.15 0.01 81 1008.3
20260506043522 58 212 5.2 9.6 0.00 0.15 0.00 79 1008.6
20260506043405 58 210 5.2 7.8 0.00 0.15 0.00 80 1008.4
20260506043035 58 209 3.5 9.6 0.00 0.15 0.00 80 1008.3
20260506042904 58 195 3.5 8.7 0.00 0.15 0.00 81 1008.2
20260506042523 58 207 4.3 9.6 0.00 0.15 0.00 82 1008.3
20260506042403 58 199 5.2 8.7 0.00 0.15 0.00 83 1008.3
20260506042022 58 201 5.2 9.6 0.00 0.15 0.00 83 1007.8
20260506041552 58 195 4.3 8.7 0.00 0.15 0.00 86 1007.7
20260506041404 58 200 3.5 7.8 0.00 0.15 0.00 87 1007.8
20260506041022 58 208 3.5 6.1 0.00 0.15 0.00 87 1007.9
20260506040903 59 198 4.3 5.2 0.00 0.15 0.00 88 1007.8
20260506040522 58 203 2.6 5.2 0.00 0.15 0.00 87 1007.6
20260506040403 58 210 2.6 5.2 0.00 0.15 0.00 88 1007.5
20260506040039 58 179 2.6 5.2 0.00 0.15 0.00 88 1007.5
20260506035902 59 193 3.5 5.2 0.00 0.15 0.15 88 1007.4
20260506035522 59 220 2.6 3.5 0.00 0.15 0.15 87 1007.9
20260506035406 59 214 2.6 3.5 0.00 0.15 0.15 88 1007.8
20260506035022 59 231 0.0 2.6 0.00 0.15 0.15 86 1007.6
20260506034904 59 151 0.0 2.6 0.00 0.15 0.15 86 1007.4
20260506034548 59 0 0.0 3.5 0.00 0.15 0.15 85 1007.4
20260506034404 59 151 0.9 2.6 0.00 0.15 0.15 84 1007.4
20260506034028 60 141 1.7 6.1 0.00 0.15 0.15 82 1007.5
20260506033900 60 112 1.7 6.1 0.00 0.15 0.15 83 1007.2
20260506033529 60 195 1.7 6.1 0.00 0.15 0.15 83 1007.8
20260506033354 60 214 2.6 6.1 0.00 0.15 0.15 84 1007.8
20260506033038 60 224 2.6 6.1 0.00 0.15 0.15 83 1007.9
20260506032849 61 237 2.6 5.2 0.00 0.15 0.15 84 1007.6
20260506032522 60 204 0.9 5.2 0.00 0.15 0.15 83 1007.5
20260506032023 61 214 1.7 5.2 0.00 0.15 0.15 83 1007.6
20260506031849 61 233 1.7 2.6 0.00 0.15 0.15 84 1007.5
20260506031535 61 244 0.9 5.2 0.00 0.15 0.15 81 1007.7
20260506031349 62 244 1.7 5.2 0.00 0.15 0.15 81 1007.6